• Em Portugal
  • Lista de países
  • Para 7 dias
  • Temperatura da água
  • Mapas de satélite
  • Mapa do tempo
  • Widgets de tempo
  • user-avatar
    Iniciar Sessão

    Previsão horária em Barisal

    Hoje, 22 Novembro, Quarta-feira

    Tempo Temperatura Precipitação Vento Pressão Humidade
    00:00 +21°C° 0 mm 2 m/s 758 mmHg 65%
    01:00 +21°C° 0 mm 2 m/s 757 mmHg 66%
    02:00 +21°C° 0 mm 3 m/s 757 mmHg 66%
    03:00 +21°C° 0 mm 3 m/s 757 mmHg 67%
    04:00 +21°C° 0 mm 3 m/s 757 mmHg 69%
    05:00 +20°C° 0 mm 3 m/s 757 mmHg 71%
    06:00 +20°C° 0 mm 2 m/s 757 mmHg 72%
    07:00 +23°C° 0 mm 2 m/s 758 mmHg 67%
    08:00 +24°C° 0 mm 3 m/s 758 mmHg 63%
    09:00 +26°C° 0 mm 3 m/s 759 mmHg 58%
    10:00 +28°C° 0 mm 3 m/s 758 mmHg 52%
    11:00 +29°C° 0 mm 3 m/s 758 mmHg 45%
    12:00 +30°C° 0 mm 3 m/s 758 mmHg 39%
    13:00 +30°C° 0 mm 3 m/s 757 mmHg 39%
    14:00 +30°C° 0 mm 3 m/s 756 mmHg 38%
    15:00 +30°C° 0 mm 3 m/s 756 mmHg 38%
    16:00 +28°C° 0 mm 2 m/s 756 mmHg 42%
    17:00 +27°C° 0 mm 2 m/s 756 mmHg 45%
    18:00 +25°C° 0 mm 2 m/s 756 mmHg 49%
    19:00 +24°C° 0 mm 2 m/s 756 mmHg 50%
    20:00 +23°C° 0 mm 2 m/s 757 mmHg 51%
    21:00 +23°C° 0 mm 2 m/s 757 mmHg 52%
    22:00 +21°C° 0 mm 2 m/s 757 mmHg 53%
    23:00 +21°C° 0 mm 3 m/s 757 mmHg 54%

    Amanhã, 23 Novembro, Quinta-feira

    Tempo Temperatura Precipitação Vento Pressão Humidade
    00:00 +20°C° 0 mm 3 m/s 757 mmHg 54%
    01:00 +20°C° 0 mm 3 m/s 757 mmHg 55%
    02:00 +20°C° 0 mm 3 m/s 757 mmHg 57%
    03:00 +19°C° 0 mm 3 m/s 757 mmHg 58%
    04:00 +19°C° 0 mm 3 m/s 757 mmHg 59%
    05:00 +19°C° 0 mm 3 m/s 757 mmHg 61%
    06:00 +18°C° 0 mm 3 m/s 757 mmHg 62%
    07:00 +20°C° 0 mm 3 m/s 758 mmHg 59%
    08:00 +22°C° 0 mm 3 m/s 758 mmHg 57%
    09:00 +25°C° 0 mm 3 m/s 759 mmHg 54%
    10:00 +26°C° 0 mm 3 m/s 759 mmHg 48%
    11:00 +27°C° 0 mm 3 m/s 758 mmHg 43%
    12:00 +29°C° 0 mm 3 m/s 758 mmHg 38%
    13:00 +29°C° 0 mm 3 m/s 757 mmHg 38%
    14:00 +29°C° 0 mm 3 m/s 757 mmHg 37%
    15:00 +29°C° 0 mm 3 m/s 756 mmHg 37%
    16:00 +27°C° 0 mm 3 m/s 756 mmHg 40%
    17:00 +25°C° 0 mm 2 m/s 756 mmHg 44%
    18:00 +23°C° 0 mm 2 m/s 756 mmHg 47%
    19:00 +23°C° 0 mm 2 m/s 757 mmHg 48%
    20:00 +21°C° 0 mm 2 m/s 757 mmHg 48%
    21:00 +20°C° 0 mm 2 m/s 758 mmHg 49%
    22:00 +20°C° 0 mm 3 m/s 758 mmHg 50%
    23:00 +19°C° 0 mm 3 m/s 758 mmHg 50%

    Depois de amanhã, 24 Novembro, Sexta-feira

    Tempo Temperatura Precipitação Vento Pressão Humidade
    00:00 +19°C° 0 mm 3 m/s 758 mmHg 51%
    01:00 +19°C° 0 mm 3 m/s 758 mmHg 53%
    02:00 +18°C° 0 mm 3 m/s 758 mmHg 55%
    03:00 +18°C° 0 mm 3 m/s 758 mmHg 57%
    04:00 +18°C° 0 mm 3 m/s 758 mmHg 60%
    05:00 +18°C° 0 mm 3 m/s 758 mmHg 64%
    06:00 +18°C° 0 mm 3 m/s 758 mmHg 67%
    07:00 +20°C° 0 mm 3 m/s 759 mmHg 65%
    08:00 +22°C° 0 mm 3 m/s 759 mmHg 63%
    09:00 +25°C° 0 mm 3 m/s 760 mmHg 61%
    10:00 +26°C° 0 mm 3 m/s 760 mmHg 55%
    11:00 +27°C° 0 mm 2 m/s 759 mmHg 50%
    12:00 +29°C° 0 mm 2 m/s 759 mmHg 45%
    13:00 +29°C° 0 mm 2 m/s 758 mmHg 44%
    14:00 +29°C° 0 mm 2 m/s 757 mmHg 42%
    15:00 +30°C° 0 mm 2 m/s 757 mmHg 41%
    16:00 +28°C° 0 mm 2 m/s 757 mmHg 46%
    17:00 +26°C° 0 mm 2 m/s 757 mmHg 51%
    18:00 +24°C° 0 mm 2 m/s 757 mmHg 56%
    19:00 +24°C° 0 mm 2 m/s 758 mmHg 57%
    20:00 +23°C° 0 mm 2 m/s 759 mmHg 58%
    21:00 +21°C° 0 mm 2 m/s 759 mmHg 59%
    22:00 +21°C° 0 mm 2 m/s 759 mmHg 60%
    23:00 +20°C° 0 mm 2 m/s 759 mmHg 60%

    25 Novembro, Sábado

    Tempo Temperatura Precipitação Vento Pressão Humidade
    00:00 +20°C° 0 mm 2 m/s 759 mmHg 61%
    01:00 +20°C° 0 mm 2 m/s 759 mmHg 62%
    02:00 +19°C° 0 mm 2 m/s 759 mmHg 63%
    03:00 +19°C° 0 mm 2 m/s 758 mmHg 64%
    04:00 +19°C° 0 mm 2 m/s 759 mmHg 67%
    05:00 +19°C° 0 mm 2 m/s 759 mmHg 70%
    06:00 +19°C° 0 mm 2 m/s 759 mmHg 73%
    07:00 +20°C° 0 mm 2 m/s 760 mmHg 70%
    08:00 +23°C° 0 mm 2 m/s 760 mmHg 67%
    09:00 +25°C° 0 mm 3 m/s 761 mmHg 64%
    10:00 +27°C° 0 mm 2 m/s 760 mmHg 58%
    11:00 +28°C° 0 mm 2 m/s 760 mmHg 52%
    12:00 +29°C° 0 mm 2 m/s 760 mmHg 46%
    13:00 +29°C° 0 mm 2 m/s 759 mmHg 45%
    14:00 +30°C° 0 mm 2 m/s 758 mmHg 43%
    15:00 +30°C° 0 mm 2 m/s 758 mmHg 42%
    16:00 +28°C° 0 mm 1 m/s 758 mmHg 46%
    17:00 +26°C° 0 mm 1 m/s 758 mmHg 51%
    18:00 +25°C° 0 mm 1 m/s 758 mmHg 55%
    19:00 +24°C° 0 mm 1 m/s 759 mmHg 56%
    20:00 +24°C° 0 mm 1 m/s 760 mmHg 58%
    21:00 +23°C° 0 mm 1 m/s 760 mmHg 59%
    22:00 +21°C° 0 mm 2 m/s 760 mmHg 60%
    23:00 +21°C° 0 mm 2 m/s 760 mmHg 60%

    26 Novembro, Domingo

    Tempo Temperatura Precipitação Vento Pressão Humidade
    00:00 +20°C° 0 mm 2 m/s 760 mmHg 61%
    01:00 +20°C° 0 mm 2 m/s 760 mmHg 62%
    02:00 +20°C° 0 mm 2 m/s 760 mmHg 63%
    03:00 +19°C° 0 mm 2 m/s 760 mmHg 65%
    04:00 +19°C° 0 mm 2 m/s 760 mmHg 68%
    05:00 +19°C° 0 mm 2 m/s 760 mmHg 71%
    06:00 +19°C° 0 mm 3 m/s 760 mmHg 74%
    07:00 +21°C° 0 mm 3 m/s 761 mmHg 69%
    08:00 +24°C° 0 mm 3 m/s 761 mmHg 64%
    09:00 +26°C° 0 mm 3 m/s 762 mmHg 60%
    10:00 +27°C° 0 mm 2 m/s 761 mmHg 54%
    11:00 +28°C° 0 mm 2 m/s 760 mmHg 49%
    12:00 +29°C° 0 mm 2 m/s 760 mmHg 43%
    13:00 +30°C° 0 mm 2 m/s 759 mmHg 41%
    14:00 +30°C° 0 mm 1 m/s 758 mmHg 40%
    15:00 +30°C° 0 mm 1 m/s 758 mmHg 38%
    16:00 +28°C° 0 mm 1 m/s 758 mmHg 42%
    17:00 +26°C° 0 mm 1 m/s 758 mmHg 47%
    18:00 +25°C° 0 mm 1 m/s 758 mmHg 51%
    19:00 +24°C° 0 mm 1 m/s 759 mmHg 52%
    20:00 +23°C° 0 mm 1 m/s 759 mmHg 54%
    21:00 +23°C° 0 mm 1 m/s 760 mmHg 55%
    22:00 +21°C° 0 mm 2 m/s 760 mmHg 57%
    23:00 +21°C° 0 mm 2 m/s 759 mmHg 58%

    27 Novembro, Segunda-feira

    Tempo Temperatura Precipitação Vento Pressão Humidade
    00:00 +20°C° 0 mm 2 m/s 759 mmHg 60%
    01:00 +20°C° 0 mm 3 m/s 759 mmHg 62%
    02:00 +20°C° 0 mm 3 m/s 759 mmHg 63%
    03:00 +19°C° 0 mm 3 m/s 759 mmHg 65%
    04:00 +19°C° 0 mm 2 m/s 759 mmHg 67%
    05:00 +19°C° 0 mm 2 m/s 759 mmHg 70%
    06:00 +19°C° 0 mm 2 m/s 759 mmHg 72%
    07:00 +20°C° 0 mm 2 m/s 760 mmHg 67%
    08:00 +23°C° 0 mm 2 m/s 760 mmHg 63%
    09:00 +25°C° 0 mm 2 m/s 761 mmHg 58%
    10:00 +27°C° 0 mm 2 m/s 760 mmHg 52%
    11:00 +28°C° 0 mm 2 m/s 759 mmHg 47%
    12:00 +29°C° 0 mm 1 m/s 759 mmHg 41%
    13:00 +29°C° 0 mm 2 m/s 758 mmHg 41%
    14:00 +30°C° 0 mm 2 m/s 758 mmHg 40%
    15:00 +30°C° 0 mm 2 m/s 757 mmHg 39%
    16:00 +28°C° 0 mm 2 m/s 757 mmHg 43%
    17:00 +26°C° 0 mm 2 m/s 757 mmHg 47%
    18:00 +24°C° 0 mm 2 m/s 757 mmHg 52%
    19:00 +24°C° 0 mm 2 m/s 758 mmHg 53%
    20:00 +23°C° 0 mm 2 m/s 758 mmHg 54%
    21:00 +21°C° 0 mm 2 m/s 759 mmHg 56%
    22:00 +21°C° 0 mm 2 m/s 758 mmHg 57%
    23:00 +20°C° 0 mm 2 m/s 758 mmHg 59%
    Mostrar mais